• Join FlightAware (Why Join?)
  • Login
  • US Flag 
04:04PM EDT


 

Airport Tracker/Info


-or-


 

Live Flight TrackerFlight Track Log ✈ IBE488 ✈ 01-May-2013 ✈ LEMD / MAD - LEAS / OVD

Flight Track Log - Related Links

Times and Time Zones

All times are in EDT time to prevent confusion due to time zone crossing. See the IBE488 flight status page for this flight to view local times or setup timezone preferences in your user account.

Time Position Orientation Groundspeed Altitude Reporting Facility
EDT Latitude Longitude Course Direction KTS MPH feet Rate Location/Type
06:32AM 42.7365 -5.3416 330° Northwest  Level Estimated
06:33AM 42.8190 -5.4098 329° Northwest  Level Estimated
06:34AM 42.9015 -5.4781 329° Northwest  Level Estimated
06:35AM 42.9840 -5.5467 329° Northwest  Level Estimated
06:36AM 43.0664 -5.6154 329° Northwest  Level Estimated
06:37AM 43.1488 -5.6843 329° Northwest  Level Estimated
06:38AM 43.2311 -5.7533 329° Northwest  Level Estimated
06:39AM 43.3134 -5.8226 329° Northwest  Level Estimated
06:40AM 43.3956 -5.8921 328° Northwest  Level Estimated
06:41AM 43.4778 -5.9617 328° Northwest  Level Estimated
06:42AM 43.5600 -6.0316 328° Northwest  Level Estimated
06:43AM 43.5636 -6.0346 328° Northwest  Level Estimated
06:44AM 43.5636 -6.0346 206° Southwest  Level Estimated
06:45AM 43.5636 -6.0346 206° Southwest  Level Estimated
06:46AM 43.5636 -6.0346 206° Southwest  Level Estimated
06:47AM 43.5636 -6.0346 206° Southwest  Level Estimated
06:48AM 43.5636 -6.0346 206° Southwest  Level Estimated
06:49AM 43.5636 -6.0346 206° Southwest  Level Estimated
06:50AM 43.5636 -6.0346 206° Southwest  Level Estimated
06:51AM 43.5636 -6.0346 206° Southwest  Level Estimated
06:52AM 43.5636 -6.0346 206° Southwest  Level Estimated
06:53AM 43.5636 -6.0346 206° Southwest  Level Estimated
06:54AM 43.5636 -6.0346 206° Southwest  Level Estimated
06:55AM 43.5636 -6.0346 206° Southwest  Level Estimated
06:56AM 43.5636 -6.0346 206° Southwest  Level Estimated
06:57AM 43.5636 -6.0346 206° Southwest  Level Estimated
06:58AM 43.5636 -6.0346 206° Southwest  Level Estimated